{"data":{"norad_id":59500,"intl_designator":"2024-071S","name":"STARLINK-31512","alt_names":[],"object_type":"PAYLOAD","status":"ACTIVE","operator":null,"country":"US","launch_date":"2024-04-13","launch_site_code":"AFETR","launch_vehicle":null,"mission":null,"orbit_class":"UNKNOWN","rcs_meters":null,"size_class":null,"mass_kg":null,"dimensions":null,"purposes":["comms"],"wikipedia_slug":null,"has_3d_model":false,"image_url":null,"decayed_at":null,"tle_current":{"epoch":"2026-09-21T08:02:52.211328Z","epoch_age_seconds":93432,"freshness":"FRESH","line1":"1 59500U 24071S   26264.33532652  .00001647  00000+0  69368-4 0  9995","line2":"2 59500  43.0027 274.6074 0001478 287.8637  72.2054 15.27582183138585","mean_motion":15.27582183,"eccentricity":0.0001478,"inclination_deg":43.0027,"raan_deg":274.6074,"arg_perigee_deg":287.8637,"mean_anomaly_deg":72.2054,"bstar":6.9368e-5,"rev_number":13858,"period_min":94.266614001219,"perigee_km":482.02847702123,"apogee_km":484.05664169898,"semimajor_km":6861.1795593601,"source":"CELESTRAK","updated_at":"2026-09-22T09:00:48.960173Z"}}}